www.pogodaiklimat.ru

Погода и климат >> Архив погоды >> Россия >> Оренбургская область >> Оренбург


АРХИВ ПОГОДЫ в Оренбурге

Время (UTC), дата Ветер
(напр.,м/с)
 
Видим.   Явления Облачность Т
(С)
Тd
(С)
f
(%)
Тe
(С)
Тes
(С)
Комфортность P
(гПа)
Po
(гПа)
Тmin
(С)
Tmax
(С)
R
(мм)
R24
(мм)
S
(см)
21 8.09 СЗ 2 20 км ясно +11.0 +7.6 80 +10 +10 по сезону 1025.2 1010.9
00 9.09 СЗ 1 20 км ясно +8.1 +6.4 89 +7 +7 по сезону 1025.5 1011.0
03 9.09 СЗ 1 20 км ясно +8.5 +6.6 88 +8 +8 прохладно 1026.7 1012.2 +7.6
06 9.09 С 2 20 км ясно +16.8 +7.8 55 +17 +24 по сезону 1026.4 1012.3
09 9.09 СВ 5 20 км 8/8 1000 м
[Cu Sc Ci fib]
+22.5 +6.1 35 +23 +24 комфорт 1024.8 1011.0
12 9.09 С 5 20 км 8/6 1000 м
[Cu Sc Ci fib]
+21.9 +8.3 42 +23 +24 комфорт 1024.0 1010.2
15 9.09 С 3 20 км 8/8 1000 м
[Sc]
+20.5 +8.6 46 +22 +22 комфорт 1024.3 1010.4 +23.4
18 9.09 СЗ 1 20 км ясно +14.1 +10.4 78 +14 +14 по сезону 1025.3 1011.1
21 9.09 СЗ 2 20 км 3/0
[Ci fib]
+10.5 +9.2 92 +9 +9 по сезону 1025.8 1011.4
00 10.09 СЗ 1 20 км 3/0
[Ci fib]
+9.7 +8.9 95 +9 +9 по сезону 1026.1 1011.7
03 10.09 штиль 0 10 км 9/6 1000 м
[Sc Ac trans Ci fib]
+9.2 +7.9 92 +8 +9 прохладно 1026.6 1012.1 +9.0
06 10.09 СВ 1 10 км {туман} 8/8 600 м
[Cb cap]
+16.2 +8.8 62 +17 +19 по сезону 1026.7 1012.6
09 10.09 С 3 20 км 9/9 600 м
[Cb cap]
+20.8 +8.3 45 +23 +23 комфорт 1025.7 1011.8
12 10.09 В 2 20 км 4/4 600 м
[Cb cap]
+22.5 +6.5 36 +23 +25 комфорт 1025.3 1011.5
15 10.09 З 1 20 км 3/0
[Ac lent]
+16.9 +10.8 67 +18 +18 по сезону 1026.3 1012.3 +22.5
18 10.09 В 2 20 км ясно +14.3 +8.9 70 +14 +14 по сезону 1027.7 1013.6
21 10.09 В 2 20 км ясно +11.1 +7.0 76 +10 +10 по сезону 1028.9 1014.6
00 11.09 В 2 20 км ясно +9.2 +6.4 83 +8 +8 по сезону 1030.2 1015.7
03 11.09 В 2 20 км 1/0
[Ac lent]
+9.5 +6.9 84 +8 +8 прохладно 1032.1 1017.6 +7.5
06 11.09 В 2 20 км ясно +17.8 +8.9 56 +18 +25 тепло 1032.5 1018.4
09 11.09 С 2 20 км 6/6 1000 м
[Cu hum]
+21.6 +6.6 38 +22 +26 комфорт 1031.8 1017.9
12 11.09 штиль 0 20 км 6/6 1000 м
[Cu med, cong]
+21.8 +6.1 36 +22 +24 комфорт 1031.3 1017.4
15 11.09 СВ 1 20 км 1/1 1000 м
[Sc]
+19.6 +6.4 42 +21 +21 комфорт 1031.4 1017.4 +23.6
18 11.09 В 1 20 км ясно +13.8 +6.6 62 +14 +14 по сезону 1032.2 1017.9
21 11.09 штиль 0 20 км ясно +10.2 +6.5 78 +10 +10 по сезону 1032.5 1018.1
00 12.09 штиль 0 20 км 1/0
[Ci fib]
+8.4 +6.4 87 +8 +8 по сезону 1032.7 1018.1
03 12.09 штиль 0 20 км 3/0
[Ci fib]
+7.7 +6.1 90 +7 +7 прохладно 1033.1 1018.5 +6.9
06 12.09 СВ 1 20 км ясно +18.5 +7.5 49 +20 +28 тепло 1032.4 1018.3
09 12.09 С 3 20 км 3/3 1500 м
[Cu hum]
+22.6 +5.3 32 +23 +28 комфорт 1030.5 1016.6
12 12.09 С 3 20 км 3/3 1500 м
[Cu hum Ci fib]
+23.7 +3.3 26 +23 +25 комфорт 1028.7 1014.9
15 12.09 С 1 20 км 3/0
[Ci fib]
+20.0 +2.6 32 +21 +21 комфорт 1028.1 1014.2 +23.7
18 12.09 Ю 2 20 км ясно +13.5 +2.8 48 +13 +13 по сезону 1028.4 1014.1
21 12.09 штиль 0 20 км ясно +10.3 +3.2 61 +10 +10 по сезону 1027.9 1013.5
00 13.09 З 1 20 км ясно +8.9 +3.2 67 +9 +9 по сезону 1027.5 1013.0
03 13.09 штиль 0 20 км ясно +7.7 +3.2 73 +7 +8 прохладно 1027.4 1012.9 +6.5
06 13.09 З 1 20 км ясно +20.3 +4.0 34 +22 +29 комфорт 1026.5 1012.6
09 13.09 З 1 20 км ясно +24.1 +3.1 25 +23 +34 комфорт 1024.8 1011.1
12 13.09 Ю 1 20 км 1/1 1000 м
[Cu hum]
+24.9 +3.5 25 +24 +27 комфорт 1023.0 1009.3
15 13.09 С 1 20 км ясно +21.0 +3.5 32 +23 +23 комфорт 1022.4 1008.6 +25.2
18 13.09 СЗ 1 20 км ясно +15.1 +4.9 50 +16 +16 тепло 1022.6 1008.5
21 13.09 З 1 20 км ясно +11.9 +5.2 64 +12 +12 по сезону 1022.2 1008.0
00 14.09 З 1 20 км ясно +9.0 +4.2 72 +9 +9 по сезону 1022.1 1007.7
03 14.09 ЮВ 1 20 км ясно +8.3 +4.2 75 +8 +8 прохладно 1021.9 1007.5 +6.8
06 14.09 В 1 10 км ясно +19.3 +5.2 40 +21 +28 комфорт 1021.1 1007.3
09 14.09 СЗ 3 20 км 3/3 1500 м
[Cu med, cong]
+25.8 +3.0 23 +25 +30 комфорт 1019.4 1005.9
12 14.09 З 3 20 км 3/3 1500 м
[Cu med, cong]
+26.3 -1.0 17 +24 +26 комфорт 1018.1 1004.5
15 14.09 Ю 2 20 км 1/1 1000 м
[Sc]
+21.4 +1.5 27 +21 +21 комфорт 1017.8 1004.1 +26.8
18 14.09 Ю 3 20 км ясно +16.0 +1.6 38 +16 +16 тепло 1017.7 1003.7
21 14.09 Ю 3 20 км 8/8 1000 м
[Sc]
+15.5 +1.8 40 +15 +15 тепло 1017.1 1003.1
00 15.09 ЮЗ 2 20 км 8/8 1000 м
[Sc]
+14.7 +1.5 41 +15 +15 тепло 1016.5 1002.5
03 15.09 штиль 0 20 км 9/9 1000 м
[Sc]
+13.9 +3.9 51 +14 +14 тепло 1016.3 1002.3 +12.0
06 15.09 ЮЗ 3 20 км 9/1 1000 м
[Sc Ac trans]
+20.8 +3.3 32 +22 +24 комфорт 1016.0 1002.3
09 15.09 ЮЗ 4 20 км 9/1 1000 м
[Sc Ac trans]
+23.7 +1.2 23 +23 +25 комфорт 1015.0 1001.4
12 15.09 ЮЗ 7-11
{12}
20 км 9/5 1000 м
[Sc Ac trans]
+24.7 -0.3 19 +23 +23 комфорт 1013.5 1000.0
15 15.09 ЮЗ 2
{12}
20 км 10/8 1000 м
[Cb cap Ac trans]
+21.1 +1.1 26 +21 +21 комфорт 1012.3 998.6 +25.6
18 15.09 СЗ 2 20 км {ливн. осадки} 8/8 1000 м
[Sc]
+16.7 +8.6 59 +17 +17 тепло 1012.9 999.0

 

Местоположение метеостанции Оренбург (Оренбургская область, Россия): широта 51.68 долгота 55.10 высота над уровнем моря 117 м.

В архиве по умолчанию представлена погода в Оренбурге за последнюю неделю. Архивные данные за месяц целиком и за предыдущие месяцы, начиная с января 2011 года, Вы можете получить, выбрав интересующий диапазон дат из раскрывающегося списка и нажав кнопку "Ввод!".


*Определитесь, кто Вы:
робот инопланетянин человек

Внимание! Время в таблицах - всемирное. Для получения местного времени необходимо прибавить поправку, которая равна 5 ч.

Смотрите также архив погоды в соседних городах и на ближайших метеорологических станциях:

Погода в Татарской Каргале (Оренбургская область, Россия) (25 км)
Погода в Соль-Илецк (Оренбургская область, Россия) (59 км)
Погода в Акбулаке (Оренбургская область, Россия) (82 км)
Погода в Новокуйбышевске (Самарская область, Россия) (82 км)
Погода в Беляевке (Оренбургская область, Россия) (96 км)
Погода в Чингирлау (Западно-Казахстанская область, Казахстан) (96 км)
Погода в Новосергиевке (Оренбургская область, Россия) (110 км)
Погода в Троицком Т (Оренбургская область, Россия) (113 км)
Погода в Илеке (Оренбургская область, Россия) (121 км)
Погода в Кумертау (Башкирия, Россия) (129 км)

Пояснения к столбцам:

Ветер - указаны скорость ветра в м/с - средняя за 10 мин, порывы в срок и между сроками (в фигурных скобках) и направление, откуда дует ветер: С - северный, СВ - северо-восточный, В - восточный, ЮВ - юго-восточный, Ю - южный, ЮЗ - юго-западный, З - западный, СЗ - северо-западный.
Видимость - горизонтальная дальность видимости в метрах или километрах. При видимости от 1 до 10 км при отсутствии осадков обычно наблюдается дымка, при ухудшении видимости до 1 км и менее - туман. В сухую погоду видимость может ухудшаться дымом, пылью или мглою.
Явления - указаны атмосферные явления, наблюдавшиеся в срок или в последний час перед сроком; фигурными скобками обозначены явления, наблюдавшиеся между сроками (за 1-3 часа до срока); квадратными скобками обозначены град или гололедные отложения с указанием их диаметра в мм.
Облачность - указаны через наклонную черту общая и нижняя облачность в баллах и высота нижней границы облаков в метрах; квадратными скобками обозначены формы облаков: Ci - перистые, Cs - перисто-слоистые, Cc - перисто-кучевые, Ac - высококучевые, As - высокослоистые, Sc - слоисто-кучевые, Ns - слоисто-дождевые, Cu - кучевые, Cb - кучево-дождевые. Подробнее классификацию облаков см. в Атласе облаков (PDF).
T - Температура воздуха - температура, измеренная на высоте 2 м над землей.
Td - Температура точки росы - температура, при понижении до которой содержащийся в воздухе водяной пар достигнет насыщения.
f - Относительная влажность воздуха - влажноcть воздуха, измеренная на высоте 2 м над землей.
Te - Эффективная температура - температура, которую ощущает одетый по сезону человек в тени. Характеристика душности погоды. При расчете учитывается влияние влажности воздуха и скорости ветра на теплоощущения человека.
Tes - Эффективная температура на солнце - температура, которую ощущает человек, с поправкой на солнечный нагрев. Характеристика знойности погоды. Зависит от высоты солнца над горизонтом, облачности и скорости ветра. Ночью, в пасмурную погоду, а также при ветре 12 м/с и более поправка равна нулю.
P - Атмосферное давление - приведенное к уровню моря атмосферное давление.
Po - Атмосферное давление - измеренное на уровне метеостанции атмосферное давление.
Tmin - Минимальная температура - минимум температуры воздуха на высоте 2 м над землей.
Tmax - Максимальная температура - максимум температуры воздуха на высоте 2 м над землей.
R - Количество осадков - Количество выпавших осадков за период времени, мм. При наведении курсора мыши на число - период времени, за который выпало указанное количество осадков.
R24 - Количество осадков - Количество выпавших осадков за 24 часа, мм.
S - Снежный покров - Высота снежного покрова, см. При наведении курсора мыши на число - состояние снежного покрова и степень покрытия местности в баллах.